Location: Haieshausen
(51.8387°N, 9.9720°E)
Time: 04:12:42
(UTC+00:00)

Cosmos 1238 Rocket - Pass Details

Date: 14 July 2020
Orbit: 374 x 1030 km, 82.9° (Epoch: 10 August)

Event Time Altitude Azimuth Distance (km) Brightness Sun altitude
Exits shadow 00:50:08 19° 221° (SW) 1,746 4.8 -14.3°
Maximum altitude 00:53:27 43° 284° (WNW) 980 4.0 -14.1°
Drops below altitude 10° 00:57:41 10° 357° (N) 1,984 6.7 -13.8°
Sets 00:59:48 0° 5° (N) 2,790 8.0 -13.7°
